{"data":{"norad_id":66589,"epoch":"2026-09-20T09:29:06.020448Z","epoch_age_seconds":95991,"freshness":"FRESH","line1":"1 66589U 25270B   26263.39520857  .00014173  00000+0  52376-3 0  9999","line2":"2 66589  43.0006  36.5830 0001386 271.0135  89.0558 15.27567820 47594","mean_motion":15.2756782,"eccentricity":0.0001386,"inclination_deg":43.0006,"raan_deg":36.583,"arg_perigee_deg":271.0135,"mean_anomaly_deg":89.0558,"bstar":0.00052376,"rev_number":4759,"period_min":94.267500345746,"perigee_km":482.13460213585,"apogee_km":484.03653303159,"semimajor_km":6861.2225675837,"source":"CELESTRAK","updated_at":"2026-09-21T09:00:35.975826Z"}}